Tracking 26894 objects as of 1-Feb-2023
HD Live streaming from Space Station
objects crossing your sky now

COSMOS 2535 DEB

Track COSMOS 2535 DEB now!
10-day predictions


NORAD ID: 44640
Int'l Code: 2019-039L
Perigee: 611.5 km
Apogee: 706.7 km
Inclination: 97.7 °
Period: 97.8 minutes
Semi major axis: 7030 km
RCS: Unknown
Launch date: July 10, 2019
Source: Commonwealth of Independent States (former USSR) (CIS)
Launch site: PLESETSK MISSILE AND SPACE COMPLEX (PKMTR)

Note: This is SATELLITE DEBRIS
Your satellite tracking list
Your tracking list is empty




NASA's NSSDC Master Catalog

Two Line Element Set (TLE):
1 44640U 19039L   23032.51855658  .00000997  00000-0  15774-3 0  9995
2 44640  97.7285  54.1100 0067706 103.0680 257.8097 14.72853184178796
Source of the keplerian elements: AFSPC